OpenBCM V1.13 (Linux)

Packet Radio Mailbox

DB0FHN

[JN59NK Nuernberg]

 Login: GUEST





  
I0OJJ  > AMSAT    16.09.26 02:41l 325 Lines 15341 Bytes #999 (0) @ WW
BID : 6WA_IR0EQ
Read: OE5RCO GUEST DJ6UX
Subj: 2Line Orbital Elements
Path: DB0FHN<OE2XZR<OK1TOR<SR6DWH<SR1BSZ<EA2RCF<IR0EQ
Sent: 260916/0026z @:IR0EQ.ITA.EU [Rome] $:6WA_IR0EQ

>From i0ojj@rgate.ampr.org Wed Sep 16 02:26:50 2026
Received: from rgate.ampr.org by rgate.ampr.org (JNOS2.0q.1) with SMTP
	id AA8938 ; Wed, 16 Sep 2026 02:26:50 +0200
Received: by rgate.ampr.org with SMTP
	id AA8935 ; Wed, 16 Sep 2026 02:26:43 +0200
Message-Id: <8936@rgate.ampr.org>
>From: i0ojj@rgate.ampr.org

SB KEPS @ AMSAT  $ORB26259.1
2Line Orbital Elements 26259.AMSAT

QST de W1STR

AMSAT Orbital Elements for Amateur Satellites in TLE Format
>From Orbital Analysis Office
New England Sci-Tech STEM Education Center
Natick MA September 16, 2026
To all radio amateurs


These element sets describe the orbits of various satellites 
in use by the amateur radio community. For details see:
www.amsat.org/keplerian-elements-formats/

A daily update of element sets is available at:
www.amsat.org/tle/daily-bulletin.txt
or without bulletin text:
www.amsat.org/tle/dailytle.txt


AO-07
1 07530U 74089B   26258.06507287 -.00000046  00000-0  15815-5 0  9997
2 07530 101.9919 272.2514 0012038 321.1454  55.4981 12.53699637371783
UO-11
1 14781U 84021B   26258.62583155  .00001001  00000-0  10692-3 0  9997
2 14781  97.8172 223.2535 0006139 239.6908 120.3703 14.90992651270602
LO-19
1 20442U 90005G   26258.04326875  .00000058  00000-0  37314-4 0  9999
2 20442  98.8822 282.3126 0010620 305.7429  54.2766 14.34143949915270
AO-27
1 22825U 93061C   26258.62052732  .00000057  00000-0  38572-4 0  9999
2 22825  98.6795 325.9628 0008224 187.4761 172.6300 14.30961354719934
FO-29
1 24278U 96046B   26258.36149777 -.00000010  00000-0  27591-4 0  9995
2 24278  98.5168  94.8709 0349177 222.3008 135.0717 13.53278042485362
GO-32
1 25397U 98043D   26258.39638971  .00000024  00000-0  30520-4 0  9999
2 25397  99.0153 253.4647 0001010  11.1832 348.9368 14.24442870464173
ISS
1 25544U 98067A   26258.36891387  .00005779  00000-0  11250-3 0  9998
2 25544  51.6311 213.7631 0004926 142.7188 217.4143 15.49122235585738
NO-44
1 26931U 01043C   26258.60818354  .00000074  00000-0  58602-4 0  9993
2 26931  67.0531  10.3950 0005768 272.5109  87.5333 14.31983859303393
SO-50
1 27607U 02058C   26257.29580827  .00000780  00000-0  10940-3 0  9992
2 27607  64.5515 213.2481 0072027 246.1134 113.2415 14.83210726277670
CO-55
1 27844U 03031E   26258.44474414  .00000202  00000-0  10625-3 0  9998
2 27844  98.6771 265.8839 0008405 285.7212  74.3040 14.24381576204522
RS-22
1 27939U 03042A   26258.66304465  .00000706  00000-0  11660-3 0  9996
2 27939  98.3476  85.6042 0011117 348.4218  84.2287 14.73600825228879
CO-65
1 32785U 08021C   26258.58061921  .00004522  00000-0  28087-3 0  9992
2 32785  97.8378 241.9767 0010369  82.6642 277.5764 15.10166573998832
CO-66
1 32791U 08021J   26258.46937548  .00015863  00000-0  46071-3 0  9996
2 32791  97.7567 260.9016 0002944  40.2796 319.8665 15.35578362  1123
RS-30
1 32953U 08025A   26258.55584854  .00000078  00000-0  48650-3 0  9995
2 32953  82.5021 299.2372 0020702 113.6222 246.7034 12.43183244830924
SRMSAT
1 37841U 11058D   26258.65096345  .00000373  00000-0  58775-4 0  9998
2 37841  19.9709 231.9024 0011958 119.0292  36.9900 14.11592568770619
ZACUBE-1
1 39417U 13066B   26257.84282502  .00004434  00000-0  33927-3 0  9995
2 39417  97.8141 220.6409 0039756 313.2857  46.5052 15.01806718694185
Delfi-N3xt
1 39428U 13066N   26258.49999943  .00004692  00000-0  40184-3 0  9992
2 39428  97.8289 178.7670 0071434 266.1951  93.1101 14.96090197688122
GOMX-1
1 39430U 13066Q   26258.60679013  .00001512  00000-0  23108-3 0  9996
2 39430  97.6431  93.3709 0128632 146.3226 214.6240 14.69696904683198
LO-74
1 39440U 13066AA  26258.34398085  .00003863  00000-0  35339-3 0  9995
2 39440  97.8986 207.7717 0058724  88.3468 272.4477 14.94268289690453
AO-73
1 39444U 13066AE  26257.91175247  .00006168  00000-0  37276-3 0  9997
2 39444  97.8385 231.3522 0033442 257.6109 102.1376 15.10593009693203
DTUSAT-2
1 40030U 14033W   26257.96524878  .00006463  00000-0  34000-3 0  9998
2 40030  98.0918 261.4902 0006147 294.1085  65.9503 15.16022038666289
LILACSAT-2
1 40908U 15049K   26258.55028874  .00017506  00000-0  26915-3 0  9997
2 40908  97.4557 298.9694 0004586 283.1852  76.8890 15.54297939609770
Lapan A3
1 41603U 16040E   26258.63953834  .00003361  00000-0  10561-3 0  9998
2 41603  97.1569 251.8812 0011752  57.1243 303.1129 15.33601639568676
CAS-2T
1 41847U 16066G   26258.47869192  .00000943  00000-0  14163-3 0  9996
2 41847  98.3753 333.1750 0340552 215.3831 142.4334 14.44842705517839
TechnoSat
1 42829U 17042E   26258.19512634  .00002862  00000-0  20299-3 0  9996
2 42829  97.4397  52.5208 0018222 143.2712 216.9768 15.05398398500244
AO-91
1 43017U 17073E   26258.53201310  .00006746  00000-0  28668-3 0  9997
2 43017  97.4549 123.9019 0147826  16.9755 343.6346 15.13914463479052
S-Net D
1 43186U 18014G   26258.16695343  .00004319  00000-0  21941-3 0  9993
2 43186  97.5251 162.3896 0009789  70.6141 289.6150 15.17380945472401
S-Net B
1 43187U 18014H   26257.71861187  .00004075  00000-0  20737-3 0  9996
2 43187  97.5256 161.9334 0010365  67.8696 292.3637 15.17346186472336
S-Net A
1 43188U 18014J   26258.56100620  .00004268  00000-0  21678-3 0  9998
2 43188  97.5266 162.9966 0010266  66.0705 294.1603 15.17391713472465
S-Net C
1 43189U 18014K   26258.18466290  .00004014  00000-0  20432-3 0  9991
2 43189  97.5284 162.7114 0011530  60.3040 299.9340 15.17339702470956
Ten-Koh
1 43677U 18084G   26257.12838954  .00001128  00000-0  88215-4 0  9990
2 43677  98.0737  93.2551 0009497 169.8595 190.2822 15.03244063429524
PO-101
1 43678U 18084H   26258.58905765  .00001289  00000-0  10678-3 0  9992
2 43678  98.1169  98.7770 0011637 225.2157 134.8120 15.00728369429773
QO-100
1 43700U 18090A   26258.57813050  .00000138  00000-0  00000-0 0  9996
2 43700   0.0201 240.0669 0002446 323.0220  25.3966  1.00273131 28586
MinXSS-2
1 43758U 18099A   26258.21385947  .00046727  00000-0  73967-3 0  9997
2 43758  97.4443 337.5159 0005059 287.0111  73.0588 15.53288045428075
AO-95
1 43770U 18099N   26258.40875072  .00010321  00000-0  37515-3 0  9995
2 43770  97.4286 318.3878 0008960  38.5273 321.6604 15.28423886426997
SNUSat 2
1 43782U 18099AA  26258.37672880  .00007051  00000-0  30209-3 0  9995
2 43782  97.3963 310.4065 0009325 348.9355  11.1675 15.23039819426754
SnugLite
1 43784U 18099AC  26258.38123486  .00010408  00000-0  37357-3 0  9992
2 43784  97.3771 311.8392 0002147   7.9713 352.1561 15.28869015427090
ITASat 1
1 43786U 18099AE  26258.56633255  .00005401  00000-0  25314-3 0  9991
2 43786  97.3934 308.2915 0013200  43.1288 317.0979 15.20027480426631
EAGLET 1
1 43790U 18099AJ  26258.57855072  .00002721  00000-0  15532-3 0  9993
2 43790  97.4138 305.8443 0011942  40.2837 319.9278 15.13512647426001
ESEO
1 43792U 18099AL  26258.04242387  .00001686  00000-0  12448-3 0  9998
2 43792  97.3907 291.5635 0012627  32.7978 327.4030 15.04468600425315
JO-97
1 43803U 18099AX  26257.40456493  .00013172  00000-0  37443-3 0  9990
2 43803  97.4033 320.6747 0004078 322.4190  37.6768 15.36281570427317
Suomi 100
1 43804U 18099AY  26258.43118084  .00011175  00000-0  38337-3 0  9990
2 43804  97.4085 318.5651 0008343 327.7799  32.2931 15.30298357427214
ISAT
1 43879U 18111D   26257.34773329  .00456532  86455-4  11538-2 0  9990
2 43879  97.5786 200.9681 0007809 127.2539 232.9450 15.95491716425211
UWE-4
1 43880U 18111E   26258.27567924  .00040780  00000-0  68255-3 0  9998
2 43880  97.5819 191.1833 0007078  23.5574 336.6000 15.51746347424728
Prox-1
1 44339U 19036A   26258.23634494  .00012866  00000-0  11946-2 0  9996
2 44339  23.9941 231.8139 0005131   5.1673 354.8880 14.92494412386937
Taurus 1
1 44530U 19059C   26258.61805080  .00004088  00000-0  64633-3 0  9996
2 44530  98.6496  69.1651 0008852  33.6320 326.5446 14.72890421371951
TO-108
1 44881U 19093C   26258.64382395  .00000935  00000-0  11122-3 0  9997
2 44881  97.7457 328.6387 0014193 143.6635 216.5548 14.86636326364851
RS-44
1 44909U 19096E   26258.06775567  .00000007  00000-0 -89256-5 0  9990
2 44909  82.5171 279.9824 0216429 294.3608  63.5037 12.79749354313843
SALSAT
1 46495U 20068K   26257.26571775  .00005740  00000-0  19484-3 0  9991
2 46495  97.8883 265.8489 0009221   1.1573 358.9687 15.30910957328982
CSS (TIANHE-1)
1 48274U 21035A   26258.60897388  .00017965  00000-0  21983-3 0  9992
2 48274  41.4673 133.0148 0002634 281.8410  78.2133 15.59963769307285
TeikyoSat 4
1 49396U 21102B   26258.53019552  .00001160  00000-0  75554-4 0  9998
2 49396  97.3627 284.4957 0011561 350.0209  10.0789 15.09774366266354
Z-Sat
1 49399U 21102E   26258.53785206  .00003108  00000-0  15201-3 0  9993
2 49399  97.3264 291.1247 0014664 294.5715  65.3991 15.18855526267157
KOSEN 1
1 49402U 21102H   26258.54857903  .00005609  00000-0  20804-3 0  9996
2 49402  97.3103 298.9823 0011694 243.7460 116.2578 15.27939033267818
HO-113
1 50466U 21131B   26258.57495748  .00000382  00000-0  13146-3 0  9992
2 50466  98.4977 350.4730 0004141 170.5927 189.5340 14.41425629248136
SNUGLITE 2
1 52899U 22065F   26258.35950660  .00000750  00000-0  15063-3 0  9995
2 52899  98.2335  43.1051 0008698  99.9264 260.2920 14.64486184224194
UmKA 1 (RS40S)
1 57172U 23091G   26258.60231858  .00004685  00000-0  20979-3 0  9996
2 57172  97.4952 316.9618 0013100 157.3018 202.8800 15.21680972177752
CubeBel-2 (EU11S)
1 57175U 23091K   26258.62422755  .00010270  00000-0  34386-3 0  9993
2 57175  97.4953 322.7341 0010225 147.7588 212.4280 15.31095371178130
RS-38S
1 57189U 23091Z   26258.62151584  .00014874  00000-0  39129-3 0  9991
2 57189  97.5003 330.0519 0008083 106.2549 253.9586 15.38637269178580
SONATE-2
1 59112U 24043Q   26257.43395538  .00048509  00000-0  47779-3 0  9996
2 59112  97.5625  53.8376 0005360 227.8921 132.1883 15.65821936141829
